Kahului, HI

4:31 AM HST on September 18, 2019 (GMT -1000)
Kahului

Weather History for PHOG - August, 2019

Change the Weather History Date:

Saturday, August 24, 2019

  Actual Average Record
Temperature  
Mean Temperature 82 °F 80 °F  
Max Temperature 92 °F 88 °F 95 °F (1996)
Min Temperature 71 °F 71 °F 62 °F (1971)
Degree Days  
Heating Degree Days 0 0  
Month to date heating degree days 0 0  
Since 1 June heating degree days 0 0  
Since 1 July heating degree days 0 0  
Cooling Degree Days 17 15  
Month to date cooling degree days 337 360  
Year to date cooling degree days 2912 2446  
Since 1 June cooling degree days 1371 1187  
Growing Degree Days 31 (Base 50)    
Moisture  
Dew Point 67 °F    
Average Humidity 59    
Maximum Humidity 76    
Minimum Humidity 34    
Precipitation  
Precipitation 0.00 in 0.02 in 0.70 in (2018)
Month to date precipitation 0.26 0.41  
Year to date precipitation 9.24 10.61  
Sea Level Pressure  
Sea Level Pressure 29.95 in    
Wind  
Wind Speed 13 mph (ENE)    
Max Wind Speed 30 mph    
Max Gust Speed 40 mph    
Visibility 10 miles    
Events      
T = Trace of Precipitation, MM = Missing Value Source: NWS Daily Summary

Daily Weather History Graph

Daily Weather History Graph

Search for Another Location

Airport or City:

Astronomy

Aug. 24, 2019 Rise Set
Actual Time 6:07 AM HST 6:48 PM HST
Civil Twilight 5:44 AM HST 7:11 PM HST
Nautical Twilight 5:17 AM HST 7:37 PM HST
Astronomical Twilight 4:50 AM HST 8:04 PM HST
Moon 12:24 AM HST (8/24) 1:55 PM HST (8/24)
Length of Visible Light 13h 26m
Length of Day
12h 41m
Last Quarter, 37% of the Moon is Illuminated
Aug 24
Last Quarter
Aug 30
New
Sep 5
First Quarter
Sep 13
Full
Sep 21
Last Quarter

Hourly Weather History & Observations

Time (HST) Temp. Heat Index Dew Point Humidity Pressure Visibility Wind Dir Wind Speed Gust Speed Precip Events Conditions
12:54 AM 79.0 °F - 69.1 °F 72% 29.94 in 10.0 mi ENE 13.8 mph 20.7 mph N/A   Partly Cloudy
1:54 AM 78.1 °F - 64.9 °F 64% 29.94 in 10.0 mi East 4.6 mph - N/A   Clear
2:54 AM 78.1 °F - 64.9 °F 64% 29.93 in 10.0 mi East 3.5 mph - N/A   Clear
3:54 AM 73.9 °F - 66.0 °F 76% 29.93 in 10.0 mi Calm Calm - N/A   Scattered Clouds
4:54 AM 75.0 °F - 66.0 °F 73% 29.93 in 10.0 mi East 6.9 mph - N/A   Clear
5:54 AM 77.0 °F - 68.0 °F 74% 29.94 in 10.0 mi ENE 11.5 mph - N/A   Partly Cloudy
6:54 AM 73.9 °F - 64.9 °F 73% 29.95 in 10.0 mi South 3.5 mph - N/A   Partly Cloudy
7:54 AM 82.0 °F 86.3 °F 71.1 °F 69% 29.96 in 10.0 mi ENE 17.3 mph 26.5 mph N/A   Partly Cloudy
8:54 AM 86.0 °F 90.1 °F 69.1 °F 57% 29.96 in 10.0 mi ENE 18.4 mph 25.3 mph N/A   Partly Cloudy
9:54 AM 87.1 °F 89.9 °F 66.9 °F 51% 29.97 in 10.0 mi ENE 20.7 mph 33.4 mph N/A   Partly Cloudy
10:54 AM 90.0 °F 92.8 °F 66.9 °F 46% 29.95 in 10.0 mi East 20.7 mph 32.2 mph N/A   Partly Cloudy
11:54 AM 89.6 °F 93.4 °F 68.0 °F 49% 29.93 in 10.0 mi East 19.6 mph 31.1 mph N/A   Scattered Clouds
12:54 PM 90.0 °F 94.5 °F 69.1 °F 50% 29.94 in 10.0 mi East 19.6 mph 34.5 mph N/A   Scattered Clouds
1:54 PM 91.0 °F 93.8 °F 66.0 °F 44% 29.92 in 10.0 mi ENE 26.5 mph 38.0 mph N/A   Scattered Clouds
2:54 PM 90.0 °F 91.3 °F 64.0 °F 42% 29.91 in 10.0 mi East 23.0 mph 33.4 mph N/A   Scattered Clouds
3:54 PM 89.1 °F 91.3 °F 66.0 °F 46% 29.90 in 10.0 mi ENE 23.0 mph 35.7 mph N/A   Scattered Clouds
4:54 PM 88.0 °F 91.4 °F 68.0 °F 51% 29.91 in 10.0 mi East 25.3 mph 38.0 mph N/A   Scattered Clouds
5:54 PM 82.9 °F 87.0 °F 70.0 °F 65% 29.92 in 10.0 mi ENE 21.9 mph 35.7 mph N/A   Scattered Clouds
6:54 PM 82.0 °F 85.5 °F 69.1 °F 65% 29.94 in 10.0 mi ENE 21.9 mph 31.1 mph N/A   Scattered Clouds
7:54 PM 81.0 °F 83.8 °F 68.0 °F 65% 29.97 in 10.0 mi ENE 16.1 mph 31.1 mph N/A   Scattered Clouds
8:54 PM 82.0 °F 84.1 °F 66.0 °F 58% 30.00 in 10.0 mi ENE 15.0 mph 28.8 mph N/A   Partly Cloudy
10:54 PM 80.1 °F 82.7 °F 68.0 °F 67% 30.01 in 10.0 mi NE 16.1 mph - N/A   Clear
11:54 PM 80.1 °F 83.2 °F 70.0 °F 71% 30.01 in 10.0 mi NE 16.1 mph - N/A   Clear